Weather History for Deadhorse, AK

Change the Weather History Date:

Tuesday, March 11, 2014

  Actual Average Record
Temperature  
Mean Temperature -24 °F -  
Max Temperature -14 °F -6 °F 33 °F (1989)
Min Temperature -34 °F -18 °F -47 °F (1999)
Degree Days  
Heating Degree Days 89    
Moisture  
Dew Point -27 °F    
Average Humidity 73    
Maximum Humidity 79    
Minimum Humidity 67    
Precipitation  
Precipitation 0.00 in - - ()
Sea Level Pressure  
Sea Level Pressure 29.54 in    
Wind  
Wind Speed 9 mph (East)    
Max Wind Speed 15 mph    
Max Gust Speed -    
Visibility 9 miles    
Events      
Averages and records for this station are not official NWS values.
T = Trace of Precipitation, MM = Missing Value Source: NWS Daily Summary

Daily Weather History Graph

Daily Weather History Graph

Search for Another Location

Airport:

Trip Planner

Search our weather history database for the weather conditions in past years. The results will help you decide how hot, cold, wet, or windy it might be!

Date:

Astronomy

Mar. 11, 2014 Rise Set
Actual Time 8:33 AM AKDT 7:35 PM AKDT
Civil Twilight 7:32 AM AKDT 8:37 PM AKDT
Nautical Twilight 6:19 AM AKDT 9:51 PM AKDT
Astronomical Twilight 4:53 AM AKDT 11:18 PM AKDT
Moon 1:09 PM AKDT (3/11) 7:50 AM AKDT (3/11)
Length of Visible Light 13h 04m
Length of Day
11h 02m
Waxing Gibbous, 79% of the Moon is Illuminated
Mar 11
Waxing Gibbous
Mar 16
Full
Mar 23
Last Quarter
Mar 30
New
Apr 7
First Quarter

Hourly Weather History & Observations

Time (AKDT) Temp. Windchill Dew Point Humidity Pressure Visibility Wind Dir Wind Speed Gust Speed Precip Events Conditions
12:53 AM -25.1 °F -51.5 °F -31.0 °F 74% 29.73 in 3.0 mi NE 15.0 mph - N/A   Scattered Clouds
1:53 AM -34.1 °F -49.7 °F - N/A% 29.72 in 7.0 mi East 4.6 mph - N/A   Partly Cloudy
2:53 AM -29.9 °F -44.8 °F - N/A% 29.70 in 10.0 mi ENE 4.6 mph - N/A   Clear
3:53 AM -29.0 °F -47.9 °F -35.0 °F 73% 29.69 in 10.0 mi NE 6.9 mph - N/A   Clear
4:47 AM -29.2 °F -48.1 °F -34.6 °F 75% 29.66 in 10.0 mi NE 6.9 mph - N/A   Mostly Cloudy
4:53 AM -27.9 °F -50.9 °F -34.1 °F 73% 29.67 in 7.0 mi NE 10.4 mph - N/A   Scattered Clouds
5:53 AM -22.0 °F -47.5 °F -27.9 °F 74% 29.64 in 7.0 mi NE 15.0 mph - 0.00 in   Clear
6:53 AM -20.9 °F -46.2 °F -27.0 °F 73% 29.61 in 7.0 mi NE 15.0 mph - N/A   Scattered Clouds
7:53 AM -20.0 °F -45.0 °F -26.0 °F 74% 29.57 in 7.0 mi NE 15.0 mph - N/A   Mostly Cloudy
8:53 AM -18.0 °F -41.6 °F -24.0 °F 74% 29.55 in 5.0 mi NE 13.8 mph - N/A   Overcast
9:53 AM -17.0 °F -40.2 °F -23.1 °F 74% 29.53 in 4.0 mi NE 13.8 mph - N/A   Partly Cloudy
10:53 AM -16.1 °F -37.2 °F -20.9 °F 79% 29.51 in 6.0 mi NE 11.5 mph - N/A   Overcast
11:53 AM -14.1 °F -37.4 °F -18.9 °F 79% 29.51 in 10.0 mi ENE 15.0 mph - N/A   Overcast
12:53 PM -18.9 °F -37.2 °F -24.0 °F 78% 29.51 in 10.0 mi South 8.1 mph - N/A   Scattered Clouds
1:53 PM -18.0 °F -30.9 °F -24.0 °F 74% 29.49 in 10.0 mi South 4.6 mph - N/A   Overcast
2:53 PM -17.0 °F -27.2 °F -23.1 °F 74% 29.48 in 10.0 mi SE 3.5 mph - N/A   Mostly Cloudy
3:38 PM -18.4 °F -31.4 °F -25.6 °F 70% 29.46 in 10.0 mi SE 4.6 mph - N/A   Overcast
3:53 PM -18.0 °F -30.9 °F -25.1 °F 70% 29.48 in 10.0 mi South 4.6 mph - N/A   Overcast
4:53 PM -18.0 °F -28.5 °F -25.1 °F 70% 29.46 in 10.0 mi SSE 3.5 mph - N/A   Mostly Cloudy
5:53 PM -18.0 °F -28.5 °F -26.0 °F 67% 29.45 in 10.0 mi SSE 3.5 mph - N/A   Mostly Cloudy
6:53 PM -20.0 °F -33.3 °F -27.0 °F 70% 29.45 in 10.0 mi SSE 4.6 mph - N/A   Mostly Cloudy
7:53 PM -22.0 °F -33.0 °F -29.0 °F 70% 29.44 in 10.0 mi ESE 3.5 mph - N/A   Scattered Clouds
8:53 PM -25.1 °F -39.1 °F -31.0 °F 74% 29.45 in 10.0 mi South 4.6 mph - N/A   Clear
9:53 PM -24.0 °F - -31.0 °F 70% 29.44 in 10.0 mi Calm Calm - N/A   Clear
10:53 PM -23.1 °F - -29.0 °F 74% 29.43 in 10.0 mi Calm Calm - N/A   Clear
11:53 PM -24.0 °F -35.2 °F -29.9 °F 74% 29.43 in 10.0 mi South 3.5 mph - N/A   Clear